Location: Peterborough
(44.3091°N, 78.3197°W)
Time: 17:16:10
(UTC-04:00)

Transit 2A Rocket - Pass Details

Date: 30 March 2023
Orbit: 584 x 914 km, 66.7° (Epoch: 04 June)

Event Time Altitude Azimuth Distance (km) Brightness Sun altitude
Rises 10:44:16 0° 192° (SSW) 3,225 8.5 37.3°
Reaches altitude 10° 10:46:38 10° 186° (S) 2,353 8.0 37.6°
Maximum altitude 10:51:51 48° 114° (ESE) 1,097 7.8 38.4°
Drops below altitude 10° 10:57:30 10° 42° (NE) 2,550 7.8 39.1°
Sets 11:00:09 0° 37° (NE) 3,522 8.4 39.5°
